Tracking 29892 objects as of 21-Nov-2024
HD Live streaming from Space Station
objects crossing your sky now

STARLINK-31774

Track STARLINK-31774 now!
10-day predictions
STARLINK-31774 is classified as:


NORAD ID: 59622
Int'l Code: 2024-080X
Perigee: 450.2 km
Apogee: 452.2 km
Inclination: 43.0 °
Period: 93.5 minutes
Semi major axis: 6822 km
RCS: Unknown
Launch date: April 28, 2024
Source: United States (US)
Launch site: AIR FORCE EASTERN TEST RANGE (AFETR)
Your satellite tracking list
Your tracking list is empty




NASA's NSSDC Master Catalog

Two Line Element Set (TLE):
1 59622U 24080X   24325.87819625  .00001395  00000-0  40648-4 0  9994
2 59622  43.0024 213.2850 0001494 297.2732  62.7972 15.40701867 33064
Source of the keplerian elements: AFSPC